This demonstration page uses our WeatherBlox Daily Observations layout. Learn more.

Left ArrowRight Arrow

39.08367, -84.50855

Hourly Observations for December 19, 2019

Temp ( °F °C ) Dew Point ( °F °C ) Humidity (%) Winds ( mph kmh ) Pressure ( in mb ) Visibility ( mi km ) Precip ( " mm )
12:53 am 00:53 Clear 18 -7.8 8 -13.3 65 65 N 6 9 30.48 1032 10 16 N/A
1:53 am 01:53 Clear 18 -7.8 9 -12.8 68 68 N N/A 30.47 1032 10 16 N/A
2:53 am 02:53 Clear 18 -7.8 10 -12.2 71 71 N N/A 30.48 1032 10 16 N/A
3:53 am 03:53 Clear 17 -8.3 11 -11.7 77 77 N N/A 30.48 1032 10 16 N/A
4:53 am 04:53 Clear 16 -8.9 10 -12.2 77 77 N N/A 30.50 1033 10 16 N/A
5:53 am 05:53 Clear 17 -8.3 12 -11.1 80 80 N N/A 30.49 1033 10 16 N/A
6:53 am 06:53 Clear 16 -8.9 12 -11.1 84 84 N N/A 30.50 1033 9 14 N/A
7:53 am 07:53 Sunny 17 -8.3 12 -11.1 80 80 S 3 6 30.53 1034 8 13 N/A
8:53 am 08:53 Sunny 19 -7.2 14 -10 81 81 N N/A 30.53 1034 7 11 N/A
9:53 am 09:53 Sunny 23 -5 15 -9.4 72 72 S 7 11 30.53 1034 10 16 N/A
10:53 am 10:53 Sunny 27 -2.8 16 -8.9 63 63 S 8 13 30.52 1034 10 16 N/A
11:53 am 11:53 Sunny 31 -0.6 15 -9.4 52 52 SSW 10 17 30.50 1033 10 16 N/A
12:53 pm 12:53 Sunny 34 1.1 18 -7.8 52 52 S 9 15 30.47 1032 10 16 N/A
1:53 pm 13:53 Sunny 37 2.8 16 -8.9 42 42 SSE 10 17 30.43 1031 10 16 N/A
2:53 pm 14:53 Sunny 39 3.9 17 -8.3 41 41 S 8 13 30.42 1030 10 16 N/A
3:53 pm 15:53 Sunny 40 4.4 18 -7.8 41 41 SSW 10 17 30.41 1030 10 16 N/A
4:53 pm 16:53 Sunny 37 2.8 20 -6.7 50 50 SSW 9 15 30.42 1030 10 16 N/A
5:53 pm 17:53 Clear 31 -0.6 21 -6.1 67 67 SSW 5 7 30.42 1030 10 16 N/A
6:53 pm 18:53 Clear 32 undefined 21 -6.1 64 64 N N/A 30.43 1031 10 16 N/A
7:53 pm 19:53 Clear 33 0.6 23 -5 66 66 N N/A 30.43 1031 10 16 N/A
8:53 pm 20:53 Clear 31 -0.6 22 -5.6 69 69 N N/A 30.44 1031 10 16 N/A
9:53 pm 21:53 Clear 27 -2.8 22 -5.6 81 81 WSW 5 7 30.44 1031 10 16 N/A
10:53 pm 22:53 Clear 30 -1.1 24 -4.4 79 79 W 3 6 30.43 1031 10 16 N/A
11:53 pm 23:53 Clear 29 -1.7 23 -5 78 78 N N/A 30.45 1031 10 16 N/A

Powered by AerisWeather